Regional Weather Roundup
Issued by NWS Charleston, SC

Current Version | Previous Version | Graphics & Text | Print | Product List | Glossary On
Versions: 1 2 3 4 5 6 7 8 9 10 11 12 13 14 15 16 17 18 19 20 21 22 23 24 25 26 27 28 29 30 31 32 33 34 35 36 37 38 39 40 41 42 43 44 45 46 47 48 49 50
000 ASUS42 KCHS 191927 RWRCHS REGIONAL WEATHER ROUNDUP NATIONAL WEATHER SERVICE CHARLESTON SC 200 PM EST SUN FEB 19 2017 NOTE: "FAIR" INDICATES FEW OR NO CLOUDS BELOW 12,000 FEET WITH NO SIGNIFICANT WEATHER AND/OR OBSTRUCTIONS TO VISIBILITY. NOT ALL STATIONS ARE QUALITY CONTROLLED. USE DATA WITH CAUTION... ESPECIALLY DEWPOINT OBSERVATIONS. SCZ027-030-031-034>040-042>050-192000- ...SOUTHEAST SOUTH CAROLINA... CITY SKY/WX TMP DP RH WIND PRES REMARKS N CHARLESTON MOSUNNY 74 48 39 W14G20 29.98F WATERFRONT PRK N/A 71 52 50 NW6G15 29.97F MOUNT PLEASANT FAIR 72 52 49 NW8 29.98S JOHNS ISLAND FAIR 75 50 41 NW13 29.98F PINOPOLIS N/A 63 55 77 VRB2 29.91F MONCKS CORNER FAIR 70 46 43 N8 30.00S SUMMERVILLE FAIR 72 46 40 NW8 30.00S BEAUFORT MCAS MOSUNNY 76 50 40 N12 30.00F BEAUFORT ARPT FAIR 73 50 43 NW10 29.99F HILTON HEAD IS MOSUNNY 73 54 49 N14 30.01F WALTERBORO PTCLDY 73 48 40 NW9 30.00F ALLENDALE FAIR 75 46 35 NW8G15 30.00S ...SOUTHERN MIDLANDS AND PEE DEE... CITY SKY/WX TMP DP RH WIND PRES REMARKS GEORGETOWN FAIR 72 46 40 NW8 29.98S KINGSTREE FAIR 70 46 43 NW12G17 29.99S ORANGEBURG SUNNY 71 47 42 NW7 30.01F BARNWELL FAIR 75 50 41 NW13G21 30.01S AIKEN FAIR 70 48 46 NW7 30.05S MANNING FAIR 70 46 43 MISG 30.00S COLUMBIA MOSUNNY 71 48 43 NW10 30.01F SUMTER SUNNY 71 46 41 W6 29.98F FLORENCE SUNNY 70 47 43 NW8 29.99F MYRTLE BEACH SUNNY 71 48 43 NW10G21 29.96F N MYRTLE BEACH SUNNY 70 48 45 W7 29.95F $$ GAZ063-065-086>088-099>101-113>116-118-119-134>141-150-192000- ...SOUTHEAST GEORGIA... CITY SKY/WX TMP DP RH WIND PRES REMARKS SAVANNAH ARPT MOSUNNY 74 50 42 NW13 30.01F HUNTER AAF PTSUNNY 74 56 53 NW13 29.98F FORT STEWART MOSUNNY 74 54 48 NW12 29.99F STATESBORO PTSUNNY 75 55 50 NW8 30.01F SYLVANIA PTCLDY N/A N/A N/A NW9G23 30.02F CLAXTON FAIR 76 56 50 W13 30.01F ...CSRA...CENTRAL AND FAR SOUTHEAST GEORGIA... CITY SKY/WX TMP DP RH WIND PRES REMARKS THOMSON SUNNY 73 54 51 NW5 30.06F AUGUSTA-BUSH MOSUNNY 74 49 41 N16 30.00F AUGUSTA-DANIEL PTSUNNY 74 48 39 NW8 30.02F SWAINSBORO MOCLDY 73 52 46 N5 30.03S VIDALIA MOSUNNY 73 57 56 NW13 30.03S EASTMAN FAIR 72 43 34 NW8 30.06F HAZLEHURST FAIR 75 56 50 NW6 30.02S ALMA MOSUNNY 75 55 49 NW12G17 30.02F WAYCROSS PTSUNNY 79 60 52 N12 30.02F JESUP FAIR 75 54 46 NW7 30.02F BAXLEY FAIR 75 59 57 NW8 30.02S BRUNSWICK MOSUNNY 73 59 60 NW8 30.03S SAINT SIMONS MOSUNNY 74 54 49 NW10 30.02F $$ SCZ027-028-034-036>038-045-046-048>050-GAZ119-141-192000- ...LAKE AND SUPPLEMENTAL COASTAL OBSERVATIONS... STATION/POSITION TIME TEMP WIND PRES WAVE SWELL AIR SEA DIR/SP/G HT/PER HT/PER/DIR (UTC) (F) (DEG/KT/KT) (MB) (FT/S) (FT/S/D) WINYAH BAY 1845 70 310/ 6 1015.0S LAKE MURRAY 1920 62 150/ 5/ 6 1015.9 ACE BASIN NERRS 1845 75 280/ 4 1015.0F FORT PULASKI 1900 70 60 310/ 13/ 15 1016.2 SAPELO ISLAND 1900 74 310/ 10 1016.0 $$ ANZ835-935-AMZ111-154-330-350-352-354-370-450-454-472-192000- ...C-MAN AND BUOY OBSERVATIONS... STATION/POSITION TIME TEMP WIND PRES WAVE SWELL AIR SEA DIR/SP/G HT/PER HT/PER/DIR (UTC) (F) (DEG/KT/KT) (MB) (FT/S) (FT/S/D) BUOY 41004 1850 63 68 260/ 12/ 14 1015.2F 2/ 5 2/150/ 7 BUOY 41008 1850 63 63 160/ 4/ 6 1016.4F 1/ 5 FOLLY BEACH CMAN 1900 74 320/ 6/ 9 1016.0F CAPERS NEARSHORE 1908 61 60 210/ 8/ 10 1015.0F FRIPP NEARSHORE 1908 67 60 300/ 8/ 10 1015.5F STATION/POSITION TIME TEMP WIND PRES WAVE SWELL AIR SEA DIR/SP/G HT/PER HT/PER/DIR (UTC) (F) (DEG/KT/KT) (MB) (FT/S) (FT/S/D) 5E ST. MARYS GA 1900 65 N/A 1/10 FRYING PAN BUOY 1910 61 65 270/ 14/ 16 1014.1 BUOY 41025 1850 59 67 290/ 8/ 10 1012.3F 2/ 8 2/170/ 8 CAPE LOOKOUT NC 1900 62 260/ 9/ 10 1012.4R BUOY 41002 1850 67 71 200/ 14/ 17 1011.8F 5/ 6 2/240/ 8 BUOY 41010 NOT AVBL ST AUGUSTINE FL 1900 65 67 50/ 9/ 11 1018.1F $$

USA.gov is the U.S. government's official web portal to all federal, state and local government web resources and services.